GFSFLT2_sfc_temp_000.txt.gz
Temp
64 65 57 54 50 53 52 56 56 47 48 48 48 47 47 47 47 47 48 48 49 49 50 50 50 50 49
60 57 55 49 51 51 53 54 54 48 46 46 45 45 45 45 45 45 45 45 46 47 48 49 49 49 49
57 52 48 50 49 52 52 51 52 44 45 44 43 44 44 44 44 44 43 43 44 46 47 47 47 47 48
53 47 47 45 49 51 48 49 48 48 44 43 43 43 43 43 43 42 41 42 44 46 46 46 45 46 46
46 45 44 42 45 49 47 48 46 44 43 45 45 45 45 44 43 42 41 42 44 44 45 45 44 44 45
48 46 45 47 49 47 44 41 41 43 40 41 44 42 44 45 43 40 40 42 43 43 43 43 43 43 44
47 47 48 47 47 43 41 41 40 42 39 38 43 40 44 45 42 40 40 41 41 41 41 41 41 42 42
50 47 47 49 46 45 42 41 39 40 39 33 43 41 43 44 42 39 40 40 40 40 40 40 40 40 40
46 45 45 45 43 40 35 34 36 39 38 36 39 39 39 41 43 40 40 40 39 39 39 39 39 38 39
40 40 41 40 41 42 37 33 33 36 38 34 37 35 32 41 41 42 42 41 40 39 38 38 37 37 38
39 37 38 38 38 38 37 35 33 33 39 35 32 32 32 32 38 40 40 40 40 40 39 39 38 37 36
34 34 35 35 35 35 34 35 36 35 37 32 28 28 27 27 30 39 39 40 39 39 39 40 39 38 38
33 33 34 35 34 32 33 32 31 33 35 33 31 30 27 25 27 30 33 37 38 37 38 37 37 37 34
32 35 34 32 32 32 31 32 32 33 33 32 31 29 26 29 30 29 33 31 36 37 37 37 38 39 38
32 32 33 32 30 31 32 31 30 31 32 33 33 31 30 27 25 29 32 33 36 36 35 34 36 38 39
32 33 31 30 29 30 31 30 30 31 30 31 29 28 30 33 31 28 32 33 35 35 34 32 34 38 39
32 32 30 30 30 30 29 30 29 30 30 28 26 25 23 24 33 32 28 31 32 31 34 33 32 35 37

GFSFLT2_sfc_temp_003.txt.gz
Temp
62 61 54 51 49 51 49 51 48 51 51 50 49 49 48 48 48 47 47 48 49 49 50 51 51 52 52
59 59 52 51 51 49 52 55 52 49 49 48 48 48 47 47 46 46 46 46 46 47 48 49 50 50 50
56 55 50 49 47 50 50 49 52 48 47 47 47 46 46 46 46 46 45 45 44 45 46 47 48 48 48
54 46 47 47 47 45 45 47 46 50 48 46 47 46 46 45 45 44 43 43 43 45 46 46 46 46 46
52 45 44 43 43 45 44 45 45 43 41 42 41 41 41 45 44 44 43 43 43 45 46 46 46 46 46
51 47 47 46 45 44 43 39 36 40 37 38 40 38 39 39 45 45 43 42 42 44 44 44 44 44 44
51 50 49 48 46 43 41 39 37 36 36 34 38 36 38 43 45 44 43 41 42 43 43 42 42 42 42
54 53 50 48 46 44 42 39 37 37 36 31 37 36 38 38 44 44 42 41 41 41 41 41 41 41 41
48 48 49 48 45 41 34 33 33 34 35 34 34 34 34 36 38 43 41 41 42 41 41 41 40 40 38
41 43 42 42 43 39 35 33 31 33 35 32 33 31 28 35 34 35 35 42 42 42 41 41 40 34 32
35 34 34 34 36 36 36 35 31 31 35 32 28 28 28 27 31 33 33 34 34 36 41 41 40 39 32
34 32 32 32 33 33 34 34 34 34 33 30 24 24 22 23 24 30 31 33 33 33 32 38 41 41 41
33 32 32 32 32 31 31 31 31 33 33 30 27 26 27 24 22 24 27 30 33 32 31 31 31 31 30
32 32 32 30 30 30 29 29 29 29 32 29 28 27 25 25 24 24 27 25 29 30 30 32 33 34 33
31 30 30 30 29 30 31 29 29 28 28 29 29 29 27 25 22 24 25 27 29 30 29 30 32 33 33
31 30 29 28 28 29 30 29 27 27 26 26 23 21 22 27 31 24 26 27 29 29 29 27 28 32 32
30 29 29 28 28 28 29 29 27 26 25 22 18 17 15 16 25 35 25 27 27 27 28 28 28 30 32

GFSFLT2_sfc_temp_006.txt.gz
Temp
63 62 54 54 51 51 51 51 53 56 56 54 53 53 52 51 50 50 49 48 49 49 50 51 52 52 52
60 59 52 50 50 48 49 52 50 53 54 53 52 51 51 49 49 48 47 47 47 47 47 48 49 50 51
57 58 49 48 46 46 46 48 49 51 52 51 51 50 49 48 47 47 47 46 46 46 46 46 48 49 50
56 54 46 45 46 44 42 44 44 48 49 48 48 48 47 47 47 46 46 45 45 44 45 46 47 47 48
54 49 44 41 42 44 44 43 44 43 42 42 38 38 38 45 44 45 44 45 44 44 45 46 47 46 47
54 51 49 48 45 44 43 38 36 40 37 36 36 33 36 35 44 45 45 45 44 44 44 46 45 45 45
54 53 52 51 47 43 43 41 36 35 36 33 33 31 34 41 45 45 45 45 44 43 43 44 44 44 44
56 56 55 53 49 47 43 36 33 34 35 31 32 31 34 35 44 45 45 45 43 42 43 42 43 43 43
52 53 52 50 47 40 35 34 30 32 34 32 30 31 32 33 34 43 44 43 42 42 43 43 42 42 39
42 44 45 45 45 43 37 34 31 29 33 31 29 30 27 32 31 32 33 41 43 43 43 43 43 34 29
36 35 35 34 35 35 36 36 31 31 33 29 24 27 27 26 29 29 28 28 29 31 39 41 42 39 29
33 33 32 32 32 33 33 33 33 33 36 27 22 22 17 22 22 25 25 26 26 28 28 35 40 41 42
33 33 33 32 32 31 31 31 31 32 32 27 24 21 19 17 19 20 23 26 28 28 26 27 28 28 27
34 32 32 30 29 30 28 28 27 27 30 27 25 20 16 19 20 21 21 22 24 25 26 28 28 28 29
31 30 30 29 28 29 28 28 28 25 24 25 24 23 22 18 22 23 22 22 24 25 25 26 27 28 29
30 29 29 28 28 28 28 28 27 25 23 18 17 17 16 21 29 21 20 22 24 24 25 24 25 28 29
29 29 28 28 28 27 28 28 25 21 17 13 11 9 7 9 20 34 23 25 25 24 25 24 24 27 29

GFSFLT2_sfc_temp_009.txt.gz
Temp
63 64 61 58 59 57 57 56 56 58 59 58 58 57 56 56 55 55 54 53 52 52 52 52 52 53 53
60 61 60 57 58 53 52 54 52 55 57 57 56 55 55 54 53 52 51 51 50 50 50 50 50 51 51
57 60 59 48 47 48 48 49 49 51 55 55 54 53 52 52 52 51 50 49 48 48 47 47 48 49 50
56 57 58 47 49 48 44 45 45 47 50 51 52 52 51 51 50 49 48 48 48 47 46 46 46 47 49
55 56 54 42 44 47 47 46 43 44 43 45 45 45 46 50 46 46 47 47 47 46 45 46 46 47 48
53 53 54 49 49 48 46 40 37 42 40 39 40 39 40 39 43 46 47 46 46 45 45 45 45 47 46
51 53 53 55 53 48 47 44 43 38 40 36 36 35 36 39 43 46 46 46 46 45 44 44 45 46 45
53 55 56 56 54 52 50 42 34 35 38 32 33 33 34 36 44 46 46 46 45 45 44 43 44 44 44
50 49 50 52 53 42 36 36 32 32 32 32 31 31 32 33 36 45 45 45 45 45 43 43 43 43 40
47 48 47 49 51 49 45 39 32 29 31 30 30 30 28 30 32 33 35 44 44 43 43 43 43 34 30
45 38 35 35 35 36 38 40 34 32 32 31 28 27 28 28 30 31 30 29 29 32 40 42 42 39 29
39 35 33 32 32 33 33 33 33 34 33 31 27 27 25 25 26 25 26 26 26 27 27 33 39 41 42
35 32 32 32 32 31 31 32 32 32 31 29 27 24 24 23 22 21 24 25 25 24 24 25 26 27 24
32 32 32 31 29 30 28 29 28 27 29 28 25 25 22 20 22 19 21 21 22 22 24 25 26 27 28
31 30 30 29 28 28 28 28 26 25 25 27 27 26 21 19 15 19 21 20 22 23 22 23 25 27 28
30 30 28 28 27 27 28 27 26 25 23 24 23 22 17 20 27 19 20 20 22 23 23 22 24 27 27
29 29 28 28 28 27 27 27 26 23 18 14 16 10 6 12 19 31 22 23 23 23 24 23 23 25 27

GFSFLT2_sfc_temp_012.txt.gz
Temp
61 63 61 60 59 59 60 61 61 60 61 61 60 61 61 61 60 60 59 59 58 57 57 56 56 55 55
56 57 58 60 61 60 58 59 59 58 58 59 60 59 59 58 57 56 56 55 55 54 55 55 54 54 54
53 56 57 58 56 53 57 56 54 55 57 57 59 58 57 56 54 53 52 52 52 52 52 52 52 52 52
51 53 54 56 51 53 51 47 49 50 52 54 56 56 56 55 53 51 50 49 50 50 49 49 49 49 50
48 51 51 51 48 51 49 52 48 50 47 48 51 52 51 52 50 48 48 47 47 48 49 48 47 47 48
45 45 48 50 52 52 50 49 46 43 43 44 46 46 47 47 48 48 46 46 46 48 48 48 47 47 47
43 44 45 49 52 50 51 49 48 43 43 41 40 42 40 42 47 46 45 45 46 46 47 46 46 46 47
44 45 46 48 49 49 49 50 39 38 43 37 35 37 36 38 45 45 44 44 44 45 46 46 45 45 46
47 47 47 48 48 47 45 40 38 35 36 34 32 31 33 33 38 42 42 42 44 46 46 45 45 44 43
45 46 47 47 48 46 45 42 39 32 33 34 30 30 28 30 32 32 36 43 45 46 46 45 44 36 32
41 42 44 43 38 37 37 43 42 34 34 33 30 28 28 26 28 30 31 34 36 41 45 44 44 39 30
36 38 40 36 33 33 33 33 34 34 35 32 29 28 26 25 25 27 29 30 31 30 30 36 41 43 42
34 35 34 33 32 31 31 30 30 30 30 29 29 27 27 26 24 24 27 28 26 26 25 26 26 27 24
33 34 32 30 29 30 29 29 27 25 28 28 27 26 24 25 25 22 23 23 23 23 24 25 26 27 26
32 31 30 28 28 29 29 28 26 25 25 26 27 26 24 21 18 18 19 19 22 22 22 22 24 26 26
31 30 29 27 27 27 28 27 25 25 24 24 22 19 19 21 25 16 20 20 21 22 22 21 22 24 25
29 29 28 27 27 27 27 27 25 23 19 19 14 8 8 12 19 29 21 21 22 22 23 22 23 24 26

GFSFLT2_sfc_temp_015.txt.gz
Temp
55 56 55 55 58 58 58 58 61 60 60 61 59 59 59 60 61 62 63 64 64 65 64 63 62 60 59
50 52 53 55 56 56 57 59 58 59 60 60 60 59 59 59 59 60 60 61 62 62 62 61 60 58 56
46 50 52 54 54 55 55 55 57 56 58 59 59 58 58 57 58 58 58 59 59 58 57 57 56 55 56
42 43 46 49 51 50 50 52 51 54 54 55 56 57 56 57 56 56 56 55 55 54 53 52 51 52 53
40 41 43 44 44 47 48 50 52 50 50 52 51 51 53 55 55 53 54 54 53 52 51 49 49 49 51
38 37 39 41 43 44 45 45 44 51 49 49 51 48 50 52 54 55 52 51 51 50 49 47 47 47 48
37 38 39 42 43 41 42 42 43 49 45 45 45 45 49 46 51 51 50 49 49 48 47 46 46 46 46
41 41 43 44 44 44 43 42 43 45 45 42 43 42 38 41 49 49 49 48 47 47 46 46 45 45 45
46 46 46 46 46 44 41 40 39 42 40 42 37 33 34 35 43 48 47 47 46 45 45 43 43 44 44
40 40 43 42 44 43 43 39 39 39 37 37 32 31 29 31 33 43 42 44 43 42 42 43 44 40 37
36 36 37 38 39 40 39 38 37 37 41 37 31 30 30 27 30 32 33 36 37 40 42 44 44 40 34
33 33 34 34 35 36 34 33 34 33 37 34 31 29 26 26 25 27 29 30 32 33 36 43 45 44 41
32 32 33 34 33 31 31 30 29 28 29 31 30 29 28 26 24 24 26 26 28 30 30 31 31 30 33
32 32 33 32 29 30 29 28 26 25 27 28 28 28 25 25 26 26 25 25 26 26 28 27 28 29 28
31 30 30 30 28 29 29 28 25 24 24 26 26 26 25 25 23 25 23 23 25 24 24 23 24 25 26
30 29 28 28 27 28 28 26 25 24 24 24 24 23 23 25 28 20 21 21 22 23 23 21 22 23 25
30 29 28 28 28 27 27 26 24 23 20 19 18 18 17 15 20 28 20 21 21 21 21 21 22 24 26

GFSFLT2_sfc_temp_018.txt.gz
Temp
48 50 47 49 53 55 56 57 58 59 60 60 60 59 59 59 59 59 60 60 62 64 66 66 67 65 64
42 43 43 47 48 47 51 55 55 58 59 59 59 58 59 59 59 58 58 59 59 61 64 65 65 64 64
37 41 42 43 43 46 48 51 54 55 57 57 59 59 58 58 58 58 57 57 57 57 58 61 63 63 62
38 38 39 41 41 40 41 45 45 51 53 55 56 56 57 58 57 56 55 55 56 57 57 57 59 60 60
36 36 37 37 36 40 39 41 44 46 46 50 51 52 53 54 53 53 54 55 55 56 57 57 57 57 57
35 33 35 37 37 38 38 37 36 46 44 44 48 48 51 51 53 53 53 54 54 55 55 56 54 53 53
34 34 34 37 38 37 37 37 38 42 43 40 44 43 48 49 51 52 52 53 53 54 54 52 51 51 50
38 38 38 39 39 39 39 39 40 42 44 37 43 42 46 46 48 49 50 51 52 52 50 49 48 48 47
42 43 43 43 43 39 35 34 34 37 42 41 42 42 35 36 39 45 48 51 50 49 48 47 46 46 45
36 37 38 39 41 38 34 32 33 32 40 39 40 34 33 32 34 38 46 49 48 48 47 46 45 39 38
32 33 35 36 36 35 36 34 32 31 36 36 35 32 32 29 30 32 40 43 43 44 45 44 42 39 36
30 31 31 32 34 34 34 34 32 29 30 30 32 33 28 26 28 29 31 33 36 36 38 41 42 41 41
28 29 30 33 33 33 32 31 30 28 27 29 31 30 29 27 25 25 27 28 32 32 35 37 37 37 36
27 28 30 31 30 31 29 28 27 26 28 28 27 28 26 27 28 26 27 26 28 29 29 28 30 33 37
26 27 28 29 29 30 28 28 25 24 24 26 27 27 26 27 25 25 25 25 27 26 27 25 26 30 32
26 26 27 28 27 28 28 26 24 24 23 23 22 23 24 26 28 23 23 23 24 25 27 25 25 26 28
25 26 28 27 27 27 26 25 23 22 20 20 18 19 20 17 22 30 23 23 24 23 24 24 24 25 27

GFSFLT2_sfc_temp_021.txt.gz
Temp
49 51 49 49 50 51 53 53 55 55 56 56 57 57 58 59 59 60 60 60 61 62 62 63 64 65 65
44 43 45 47 48 47 49 52 51 53 54 55 54 55 56 57 57 58 58 58 59 60 61 61 62 63 64
39 44 44 46 45 46 46 47 50 50 51 52 53 54 54 55 56 57 57 57 57 57 58 59 60 60 61
38 39 41 43 43 39 39 43 44 48 49 50 51 52 53 54 55 54 54 55 56 57 57 56 56 58 59
37 37 37 38 37 40 37 39 40 43 43 46 49 50 51 52 52 52 52 53 54 55 56 56 55 56 57
34 34 36 38 39 38 37 36 33 46 42 44 47 45 49 50 51 51 51 53 53 54 54 54 55 55 56
33 34 34 37 37 34 34 35 34 38 41 38 43 41 47 49 50 50 50 51 52 52 53 53 53 54 54
38 38 39 39 39 37 35 36 37 39 40 33 40 39 43 46 49 49 50 51 50 51 51 52 52 52 54
40 40 41 41 40 37 33 32 33 35 40 35 37 37 40 43 45 47 47 48 48 49 50 50 51 50 50
36 37 37 38 39 37 33 30 31 30 37 33 34 34 34 35 35 37 39 44 46 48 50 49 47 44 44
32 32 34 35 35 36 34 32 30 30 36 34 32 32 33 34 35 36 35 41 45 47 48 47 46 44 40
28 29 31 31 32 33 33 34 33 32 35 31 29 31 31 32 32 32 32 36 43 41 41 43 43 43 42
27 28 30 30 31 31 33 33 32 32 31 30 28 29 30 31 30 29 30 30 36 37 37 36 36 37 37
26 28 30 29 29 31 31 31 30 30 30 30 29 30 31 33 32 31 29 29 32 32 32 35 36 37 37
26 27 27 28 28 31 30 30 28 26 26 28 29 30 30 31 28 29 30 29 31 31 30 28 30 35 35
26 26 25 26 28 30 30 27 25 25 24 24 24 26 28 28 30 26 27 27 29 30 31 28 27 30 36
25 25 25 27 28 28 27 26 25 24 23 22 22 23 24 21 25 29 25 26 27 26 28 29 28 28 33

GFSFLT2_sfc_temp_024.txt.gz
Temp
49 50 50 50 52 53 54 53 54 52 52 52 52 52 54 54 54 56 57 58 59 61 62 62 63 63 63
44 46 46 49 50 49 51 53 52 52 50 50 50 51 52 53 53 54 54 55 57 58 59 61 61 62 62
40 45 46 47 46 48 48 49 51 49 49 49 50 51 50 51 52 53 53 53 55 56 57 58 59 60 61
40 40 42 44 45 43 42 46 46 50 49 49 49 49 50 50 51 51 51 51 53 55 55 55 55 57 59
37 38 39 40 39 42 40 42 43 45 45 47 47 49 50 50 51 50 51 52 52 52 54 55 55 55 56
35 35 37 38 40 39 38 36 33 45 42 42 45 45 48 50 50 50 50 50 51 51 51 52 53 54 55
36 36 35 39 39 36 36 34 33 38 37 34 44 42 46 46 47 48 49 49 50 50 50 51 52 52 53
39 39 38 39 37 35 35 35 38 40 41 32 41 40 44 46 46 47 47 48 49 49 50 51 51 51 51
40 40 40 40 39 36 32 31 31 35 39 35 37 36 36 37 43 46 46 47 48 49 49 49 49 49 51
38 38 37 38 38 36 32 29 30 30 36 32 34 35 32 40 42 39 39 42 44 46 47 48 49 48 46
34 34 34 35 35 35 33 30 28 29 35 35 32 33 32 33 38 40 40 42 42 43 47 48 49 47 44
30 30 30 31 32 33 33 33 33 31 33 33 30 31 30 30 31 37 39 36 36 40 43 47 47 47 48
28 28 29 30 31 31 32 32 32 32 33 32 30 30 29 28 29 34 34 32 37 36 36 37 39 41 40
27 28 30 29 29 30 29 30 31 32 32 31 30 30 28 29 31 33 33 30 32 34 34 33 34 35 37
26 26 27 27 27 29 29 30 28 27 28 30 30 30 31 31 32 33 32 31 32 32 33 32 33 33 35
26 25 25 25 26 30 30 28 26 26 25 25 25 26 30 30 32 30 30 30 32 33 34 33 32 33 35
25 25 25 27 28 29 29 29 28 27 26 25 24 25 25 23 27 31 29 30 30 31 33 33 30 33 35

GFSFLT2_sfc_temp_027.txt.gz
Temp
45 47 46 45 47 49 49 49 50 51 52 52 52 52 52 51 51 52 53 54 55 57 57 59 61 62 63
41 41 42 44 45 45 47 50 48 50 50 50 51 51 51 51 51 51 52 52 53 54 55 57 59 60 62
36 41 41 43 42 43 44 44 48 49 49 49 49 49 50 50 51 51 51 51 51 52 53 54 56 58 60
36 37 38 40 40 38 37 41 40 46 46 46 47 48 49 49 50 49 49 50 51 52 51 53 53 55 57
33 34 34 34 34 37 35 37 38 40 40 41 43 43 43 46 47 48 49 49 50 51 52 52 52 52 54
32 30 33 35 35 34 33 31 28 39 37 36 40 38 41 43 46 48 48 48 49 49 50 50 51 51 52
34 33 32 35 35 32 31 31 30 35 35 31 37 36 41 45 46 47 47 47 47 48 49 49 50 51 51
37 36 36 36 35 35 32 31 32 34 37 28 35 33 38 40 44 44 45 45 46 46 48 49 49 50 51
39 40 40 40 39 34 28 27 26 30 34 30 32 32 33 34 39 43 44 42 42 43 48 48 49 49 49
35 35 36 35 38 34 30 26 25 25 31 28 29 30 27 34 35 37 38 42 43 43 45 47 48 45 45
31 31 32 32 32 33 32 28 26 25 31 31 28 29 28 28 33 35 35 37 38 39 42 45 47 47 43
28 28 28 28 29 30 30 30 31 29 31 30 28 28 27 27 27 32 33 35 36 35 38 43 47 48 49
25 26 27 27 28 28 29 31 30 31 32 32 30 28 27 25 25 27 29 33 33 34 36 38 41 43 42
25 26 27 26 26 28 27 28 28 29 31 32 30 29 26 28 28 26 30 29 32 32 34 34 36 39 40
25 24 25 25 26 27 30 29 27 26 26 28 28 27 28 29 29 31 31 31 32 32 33 32 32 37 39
24 24 24 24 25 29 29 28 27 26 25 25 24 25 28 29 32 29 30 31 32 32 33 32 32 34 37
24 24 25 25 27 27 27 26 26 26 26 25 23 21 24 21 26 33 29 31 31 30 32 32 31 34 38

GFSFLT2_sfc_temp_030.txt.gz
Temp
39 41 40 40 42 43 44 44 45 49 49 50 50 50 51 51 52 52 52 53 53 54 55 56 57 57 58
36 37 37 39 40 40 43 46 44 47 48 48 49 49 50 49 49 50 51 51 52 52 53 54 55 56 57
32 36 37 38 38 39 38 39 43 45 46 46 47 47 47 48 49 49 49 50 50 50 50 51 52 54 56
32 32 34 36 35 33 33 37 36 41 42 43 44 45 46 47 47 46 46 47 48 49 49 50 50 52 54
32 31 31 32 31 33 31 33 34 36 35 36 37 38 39 42 43 44 45 46 47 49 50 49 48 50 52
30 28 30 31 31 30 30 28 26 36 33 31 35 34 36 38 43 44 45 46 45 47 48 49 48 50 50
30 30 30 31 31 29 29 28 28 32 31 28 33 31 36 39 42 43 43 44 45 46 46 47 48 48 49
34 34 34 35 34 33 30 29 30 31 33 25 31 30 34 36 40 42 42 43 44 45 46 47 47 47 48
38 39 39 38 37 33 27 25 24 27 31 27 28 28 29 30 35 40 41 39 39 40 42 44 45 46 47
32 32 34 33 36 32 28 24 23 23 29 25 25 26 24 31 32 34 35 40 41 42 43 44 44 43 44
29 29 29 29 30 30 28 26 24 23 29 29 26 27 26 26 30 33 32 33 34 35 39 42 44 44 41
26 26 26 25 26 28 28 28 29 27 29 29 27 27 26 25 24 29 29 31 31 31 35 38 41 44 47
24 24 25 26 26 27 28 30 30 30 31 29 27 26 25 24 24 25 27 29 31 32 33 35 38 40 40
24 25 26 25 25 26 25 28 27 28 31 29 27 25 23 24 26 27 28 26 32 32 32 36 38 39 39
24 24 24 25 25 27 27 26 24 25 26 28 28 26 25 25 26 28 30 31 32 32 33 34 35 38 40
23 23 23 23 24 26 27 25 24 25 25 26 24 23 26 28 31 28 30 30 32 32 33 33 33 37 40
23 24 23 24 25 25 25 25 25 27 26 25 23 21 21 20 27 34 29 30 32 32 34 34 32 33 36

GFSFLT2_sfc_temp_033.txt.gz
Temp
38 39 38 38 40 40 41 41 42 46 47 47 48 49 49 49 49 50 51 51 51 52 53 53 54 54 55
35 35 36 38 38 37 40 42 40 43 45 46 47 47 47 47 48 48 48 49 50 51 52 53 53 52 54
31 36 36 35 35 37 35 36 40 42 44 44 44 45 45 46 46 47 47 47 47 47 48 49 50 52 52
32 31 33 35 33 32 31 34 33 38 40 41 42 43 44 44 44 44 44 45 46 46 47 48 49 50 51
30 31 29 30 29 31 30 31 32 34 34 35 35 36 36 40 40 41 42 43 44 46 47 47 48 49 50
29 28 28 29 30 29 29 26 25 35 32 31 34 32 34 35 39 41 42 43 43 45 44 47 46 47 48
29 29 28 30 30 28 28 27 26 30 30 27 32 30 34 36 39 40 42 42 43 43 44 44 45 47 47
33 33 33 33 33 31 28 27 29 30 31 23 29 27 31 32 37 39 40 41 41 41 42 43 44 46 47
37 38 37 37 36 30 25 23 22 25 30 26 26 25 27 29 32 37 39 40 40 40 40 41 42 43 44
30 31 33 32 35 30 26 22 22 22 28 24 25 25 23 30 31 31 32 38 40 41 42 42 42 40 39
28 28 29 29 29 28 27 25 23 23 29 29 26 26 25 24 28 30 30 32 32 34 38 39 41 41 38
26 26 25 25 26 27 28 27 28 27 29 29 27 25 23 22 22 28 28 29 30 29 30 34 38 41 43
24 24 25 26 26 26 27 28 29 30 30 30 29 27 24 21 21 24 26 28 30 30 30 32 33 35 35
23 24 25 25 24 26 24 25 26 27 31 31 29 27 23 22 23 23 28 27 30 32 32 33 35 37 38
23 23 24 24 24 26 26 26 24 24 25 29 29 27 25 23 23 27 29 30 32 32 32 34 36 37 39
23 23 23 23 23 26 26 25 24 25 26 27 25 24 25 27 31 29 29 30 32 32 33 34 33 38 40
22 23 22 23 24 24 24 25 25 27 26 26 24 22 20 19 26 34 29 31 33 33 33 33 33 36 39

GFSFLT2_sfc_temp_036.txt.gz
Temp
36 38 37 36 38 40 40 39 40 44 44 45 46 46 47 48 48 48 49 49 50 51 52 52 52 53 53
32 34 35 37 37 36 38 41 38 41 43 44 45 45 46 46 46 46 47 47 48 49 50 51 52 52 53
30 34 35 35 35 35 34 35 38 41 42 43 43 43 44 44 45 45 45 45 45 46 47 48 49 49 50
30 30 32 34 31 31 30 33 32 37 39 40 41 42 43 43 43 43 43 43 44 45 45 46 47 47 49
30 30 29 29 28 30 28 30 31 33 31 33 35 35 35 39 39 40 41 41 42 43 44 44 45 46 48
28 27 27 28 29 29 28 26 23 33 30 29 32 31 33 34 38 39 40 41 42 42 42 42 44 44 46
27 27 27 29 28 27 26 25 25 29 29 25 30 28 31 34 38 38 40 40 41 41 42 42 43 43 45
32 32 32 33 32 30 27 27 28 30 31 22 28 26 30 31 36 38 38 39 40 41 41 41 42 43 44
37 37 36 36 35 29 25 23 22 25 29 25 26 25 27 29 32 37 38 39 40 40 41 41 41 42 41
30 30 32 31 34 30 26 22 22 21 28 24 24 26 24 30 30 31 32 36 38 39 40 41 42 38 36
27 28 29 29 29 29 27 25 22 22 28 27 25 25 25 25 28 29 29 29 31 33 36 38 41 41 34
25 25 25 25 26 27 27 27 27 26 28 27 25 25 24 24 23 26 27 28 29 29 30 33 36 40 42
23 23 24 25 26 26 27 28 28 29 29 29 28 27 26 22 22 23 24 27 29 29 29 29 30 32 33
23 24 25 24 24 25 24 25 25 26 31 31 30 28 24 22 22 23 26 24 30 32 32 31 31 33 34
22 22 22 23 23 24 25 24 23 24 26 30 30 29 26 24 23 27 30 30 33 32 32 34 32 33 35
21 21 21 22 21 24 23 24 23 24 27 27 26 25 26 27 31 29 31 30 33 32 34 34 34 36 38
20 21 22 21 23 22 23 24 23 26 27 27 25 24 21 21 27 34 31 32 33 33 33 33 33 35 39

GFSFLT2_sfc_temp_039.txt.gz
Temp
34 36 36 36 37 38 39 39 39 43 44 45 45 45 46 46 46 47 47 47 48 49 50 51 51 52 52
31 33 33 35 36 35 38 39 36 40 43 43 44 45 45 45 45 44 45 46 47 48 48 49 50 50 51
29 33 33 34 34 34 33 34 37 40 42 42 42 43 43 43 44 44 43 43 44 45 45 46 47 48 49
30 30 31 32 31 29 29 32 32 36 38 39 40 41 41 42 42 42 42 42 43 44 44 44 44 45 46
28 28 27 28 27 29 28 29 30 32 32 32 32 33 34 37 38 39 39 40 41 42 43 43 43 44 45
26 25 26 27 28 28 27 26 23 33 30 28 32 30 31 32 37 38 39 40 41 41 41 42 43 43 44
27 26 26 28 28 26 26 26 25 30 30 25 30 28 32 34 37 38 39 39 40 40 40 41 42 42 43
31 31 31 33 32 30 27 27 28 30 31 22 28 26 30 31 36 37 38 39 39 40 40 41 41 42 43
36 37 36 36 35 29 25 23 22 25 29 25 25 25 27 28 32 36 38 39 40 40 40 41 41 42 41
29 30 31 31 34 30 26 21 21 20 28 23 24 25 22 29 29 31 32 36 38 39 39 40 41 38 36
27 27 28 29 29 29 28 24 22 21 28 27 24 24 23 24 28 29 30 31 31 32 35 37 38 38 33
24 25 24 24 25 26 27 27 27 26 27 27 25 24 24 24 23 27 29 30 28 28 28 32 35 37 39
22 22 23 24 24 24 26 26 26 28 29 29 27 27 26 24 23 24 26 28 30 28 28 29 29 30 31
22 23 23 23 22 24 22 23 23 25 30 31 31 28 25 26 25 24 27 26 31 32 32 32 30 30 31
21 21 21 21 21 23 23 23 21 23 25 30 31 30 29 27 24 27 29 32 33 32 32 31 30 31 32
21 20 19 20 20 22 22 22 22 23 25 27 27 26 29 27 32 29 31 32 33 33 33 33 31 32 33
19 19 21 20 21 20 20 22 23 25 27 27 26 25 24 22 29 37 29 32 33 33 33 32 32 35 34

GFSFLT2_sfc_temp_042.txt.gz
Temp
33 34 34 34 36 37 38 37 38 42 44 44 45 45 46 46 46 46 46 47 47 48 49 50 51 51 52
30 32 32 34 34 34 36 38 36 40 42 43 44 44 44 44 44 43 44 44 45 46 47 47 48 49 51
28 32 33 34 31 33 33 34 36 39 41 41 42 42 43 43 43 43 43 43 44 44 45 45 46 47 49
30 29 30 31 30 28 28 31 31 35 37 38 40 41 41 42 41 41 41 42 43 43 44 44 44 46 46
28 28 26 27 26 28 28 29 30 33 31 33 33 33 33 37 37 38 39 39 41 42 43 43 43 43 44
26 25 26 26 28 27 27 25 23 33 29 30 32 31 32 33 37 38 39 40 41 41 42 42 42 43 43
27 26 26 28 28 26 26 26 25 30 29 25 30 28 32 34 37 38 39 39 40 40 41 41 42 42 43
31 31 31 32 31 30 27 27 28 30 31 22 28 26 30 32 36 37 38 39 40 40 40 41 41 42 42
36 37 36 36 35 30 24 22 21 24 28 25 25 25 27 28 31 36 38 39 40 40 41 41 41 41 40
29 29 31 30 34 29 25 21 20 20 27 23 23 25 22 29 30 32 31 36 37 38 39 39 41 38 36
26 26 27 27 27 27 26 23 21 20 27 26 24 24 23 23 29 31 32 32 31 32 35 36 37 37 33
24 24 23 23 24 24 25 25 25 24 26 25 23 24 23 23 24 29 30 31 30 29 31 33 35 36 37
22 22 22 23 23 23 23 24 24 25 28 27 26 26 26 25 24 26 28 29 31 30 30 30 29 29 29
21 22 22 21 21 22 21 22 22 23 29 30 30 29 26 27 26 26 29 27 32 33 33 33 30 30 30
21 20 21 21 20 22 21 21 20 22 24 29 32 31 30 28 26 28 30 31 33 33 33 32 30 30 31
20 20 19 19 20 21 21 20 20 22 22 28 27 27 29 30 33 30 32 31 32 33 33 32 32 30 32
19 19 20 20 20 19 19 20 20 22 26 27 26 25 23 23 30 38 30 32 32 33 33 32 32 33 32

GFSFLT2_sfc_temp_045.txt.gz
Temp
39 41 40 40 41 42 42 42 43 43 43 44 44 44 45 46 46 46 46 46 47 48 48 49 50 50 51
35 38 38 40 40 38 41 42 41 42 42 42 43 44 44 44 44 44 45 45 46 46 47 47 48 49 50
34 38 38 38 38 39 38 39 40 40 41 41 42 42 42 43 44 44 44 44 44 44 45 45 46 47 48
33 32 36 37 36 35 34 37 37 39 39 40 41 41 42 42 42 41 41 42 42 43 44 44 44 45 46
32 33 31 33 32 34 32 34 35 37 37 38 39 39 39 40 39 39 39 40 41 41 42 42 43 44 45
30 31 32 33 33 31 30 29 27 38 35 33 38 36 38 39 39 39 40 40 41 41 42 42 42 42 43
32 31 31 33 30 29 30 29 28 34 33 29 36 34 38 38 38 39 39 40 40 41 41 41 41 42 43
35 35 34 35 34 33 30 30 32 34 35 25 33 32 36 37 38 38 39 39 40 41 41 41 42 42 42
37 37 36 36 35 32 28 25 24 28 33 29 31 30 32 33 37 38 39 40 39 39 39 39 40 41 42
33 33 33 33 34 32 28 23 23 22 32 26 27 28 25 34 36 36 38 39 39 39 38 38 39 37 36
30 31 31 32 32 31 29 25 23 23 30 28 26 26 25 26 32 35 35 36 37 37 38 38 37 37 34
27 27 28 27 28 28 28 27 27 25 27 26 24 24 24 25 27 33 34 36 37 37 36 38 38 38 38
25 25 26 26 26 26 27 27 27 28 28 28 26 27 27 27 27 30 31 34 36 33 34 34 33 33 32
24 26 26 25 25 26 24 25 24 26 30 31 30 29 29 30 29 29 33 30 33 34 34 34 34 33 33
24 24 24 24 24 25 24 24 22 23 25 30 32 33 32 31 29 32 32 32 33 33 33 33 33 33 33
23 23 22 22 22 25 24 23 22 24 25 28 30 29 32 34 37 32 33 32 33 33 34 32 33 31 33
22 22 22 23 22 22 23 23 24 26 28 30 28 28 25 26 35 38 31 32 32 33 33 33 32 33 33

GFSFLT2_sfc_temp_048.txt.gz
Temp
44 45 44 44 46 47 46 45 47 46 45 45 45 45 45 46 46 47 47 47 48 48 49 49 50 51 51
39 41 42 44 43 43 46 46 45 45 45 44 44 44 44 45 45 45 46 46 46 46 47 48 48 49 49
37 42 43 41 43 43 42 43 45 44 44 44 44 44 44 44 45 45 45 45 45 45 46 46 47 47 48
37 37 38 42 41 39 38 41 40 43 43 43 44 43 44 44 44 43 43 43 43 44 44 44 44 45 46
33 36 35 38 37 38 36 38 38 40 41 42 43 42 43 43 42 42 42 42 42 43 43 43 43 43 45
32 33 36 36 37 35 32 32 30 40 38 36 41 39 42 43 42 42 42 42 42 42 43 43 43 43 44
35 35 34 36 33 31 32 31 30 36 36 32 39 38 42 43 41 41 42 42 42 42 42 42 43 43 43
38 37 36 36 36 35 32 32 35 37 37 28 37 36 40 41 40 40 41 41 42 42 42 42 41 42 42
39 39 39 38 37 34 30 28 27 31 36 33 34 33 34 35 40 42 42 42 41 42 42 42 42 41 40
38 38 38 38 37 36 31 26 26 25 35 29 29 29 26 36 38 38 41 41 41 42 43 42 42 38 36
35 35 36 36 36 35 32 28 25 25 32 30 27 27 26 27 33 36 37 40 41 40 42 42 42 41 35
31 30 31 31 31 31 31 30 30 27 30 28 24 25 25 26 27 34 36 38 39 38 39 38 39 40 41
27 28 30 30 29 29 30 30 30 30 31 30 29 28 28 26 27 31 33 35 37 36 36 35 35 35 33
27 29 30 29 28 29 27 27 27 29 32 33 32 31 29 31 31 30 33 31 35 35 34 34 35 36 35
27 27 27 27 27 29 27 27 25 25 27 32 34 34 33 31 29 33 33 33 34 33 33 33 35 35 34
26 26 25 25 26 28 28 26 25 26 28 30 32 31 33 36 39 33 34 33 33 33 33 32 33 33 34
25 25 26 26 25 25 26 27 26 28 29 31 31 30 27 27 36 40 32 33 33 33 33 33 32 34 35

GFSFLT2_sfc_temp_051.txt.gz
Temp
42 44 42 42 44 45 45 44 45 47 47 47 47 47 47 47 47 47 47 48 48 49 49 50 50 50 51
38 39 40 42 43 42 44 46 43 46 47 47 47 47 47 47 47 47 47 47 47 48 48 48 49 50 51
35 40 40 41 39 41 41 41 44 45 45 45 46 46 46 46 46 47 46 46 46 46 47 47 47 48 48
34 34 36 38 38 36 36 38 38 42 43 43 44 45 46 46 45 45 44 45 45 45 46 45 45 46 46
32 32 32 34 34 35 34 34 35 37 36 37 39 38 39 42 42 43 44 45 45 45 45 45 45 46 46
31 31 33 34 35 33 31 29 27 37 35 33 36 35 37 39 43 44 44 44 44 45 45 44 44 45 45
34 34 33 34 32 29 30 29 28 33 33 30 35 33 37 40 42 43 43 43 43 43 43 43 43 44 45
37 36 35 36 33 34 31 30 32 34 35 26 33 31 35 37 40 41 41 43 44 44 44 44 44 44 44
40 40 40 41 39 35 28 27 26 29 32 29 30 29 30 31 35 41 42 42 42 43 43 44 43 43 42
35 36 38 37 39 36 31 26 25 24 30 27 26 27 23 30 33 33 35 39 41 41 44 43 44 40 37
33 33 33 33 34 34 32 28 25 24 30 28 25 25 24 24 29 31 32 33 36 37 41 42 43 42 36
30 29 29 29 30 31 31 30 30 27 29 28 24 24 23 23 23 30 31 33 35 34 36 38 40 41 42
27 27 28 29 29 29 30 30 30 29 29 29 28 27 27 25 25 27 30 32 34 33 35 35 35 35 34
26 27 28 27 27 28 26 27 26 26 30 30 31 30 28 28 29 28 31 28 33 34 34 34 36 36 36
26 25 25 26 26 27 26 26 24 25 26 29 32 33 32 31 29 30 31 32 35 33 33 32 35 36 35
25 24 24 24 24 26 26 25 24 25 26 28 29 29 30 34 38 32 32 32 34 34 33 31 33 36 36
24 24 24 24 24 23 24 25 25 26 27 29 28 27 25 24 33 40 31 31 32 32 33 32 31 33 35

GFSFLT2_sfc_temp_054.txt.gz
Temp
37 37 35 37 40 39 42 40 42 46 47 47 48 48 48 48 48 49 49 49 49 50 50 50 50 50 51
34 35 35 37 38 37 40 43 41 44 46 46 47 47 47 47 47 48 48 48 48 48 49 49 49 50 50
31 34 34 35 35 36 37 37 41 43 44 44 45 45 45 46 46 47 46 46 47 47 47 48 48 49 49
30 30 32 34 33 31 32 35 34 39 40 41 43 43 44 44 43 43 44 44 45 46 46 46 46 47 47
30 31 31 30 30 32 30 32 32 34 34 34 35 35 35 39 40 41 42 44 45 46 46 46 46 46 46
29 29 29 30 31 29 29 28 26 34 31 31 33 32 34 35 40 42 43 43 44 44 45 45 45 46 46
31 30 30 31 28 28 29 29 28 31 30 28 32 30 34 36 39 41 42 42 43 44 45 45 45 45 45
34 34 32 35 35 34 31 29 30 32 32 25 30 29 32 33 38 39 40 41 43 43 43 43 44 45 45
39 39 40 40 39 34 28 26 25 28 31 27 27 26 28 29 32 38 40 40 40 41 42 43 43 44 43
32 33 34 31 37 31 29 25 24 23 28 25 24 25 22 27 26 30 30 36 38 39 41 41 42 40 38
29 29 30 30 30 32 31 27 24 23 29 28 25 24 23 22 26 29 30 31 33 34 38 40 41 41 36
27 27 26 27 28 29 29 29 29 27 29 28 25 24 23 22 22 28 30 31 32 32 34 38 40 41 41
25 25 25 26 26 27 27 27 28 28 29 28 26 26 25 24 24 26 28 31 33 32 34 34 35 36 33
24 25 26 25 24 25 25 25 24 25 29 27 28 28 26 27 27 27 29 28 32 33 33 34 36 36 35
24 24 24 24 23 25 24 24 23 23 24 28 30 31 30 29 27 28 29 30 33 33 33 32 34 35 35
24 23 22 22 22 23 25 23 22 23 24 27 28 27 28 30 36 29 30 29 32 33 33 31 32 35 36
23 22 22 22 23 21 22 22 22 23 24 27 27 26 24 23 31 39 30 30 31 31 33 33 31 33 35

GFSFLT2_sfc_temp_057.txt.gz
Temp
32 33 31 33 36 38 39 38 39 45 46 46 47 47 48 48 48 48 48 49 49 50 50 51 51 51 52
31 32 32 33 35 34 37 40 39 42 44 45 45 46 46 46 47 47 47 48 48 48 49 50 50 50 50
29 32 32 33 32 34 34 35 38 42 43 43 43 43 44 45 45 45 45 45 45 46 47 47 48 48 49
29 28 32 35 33 30 30 34 33 38 39 40 42 42 42 42 42 42 42 43 44 45 45 46 46 47 48
27 29 31 31 28 30 29 30 32 33 33 33 33 34 34 38 39 40 41 43 44 44 45 45 46 46 47
28 29 29 29 30 30 28 26 26 34 28 30 33 32 33 34 39 41 41 41 43 43 44 44 44 45 46
29 28 28 30 28 27 28 28 28 31 31 28 32 30 33 35 38 39 40 41 41 42 43 44 44 45 45
32 32 32 34 33 33 30 28 29 31 31 24 30 28 31 31 36 38 39 40 41 42 41 42 42 43 44
39 39 39 39 38 33 26 24 23 27 30 27 26 25 27 28 31 36 38 39 39 39 40 41 41 43 41
31 31 33 30 36 30 26 23 23 23 26 24 24 25 22 24 24 30 29 34 37 38 39 40 41 38 37
28 28 29 29 29 29 28 26 23 23 29 28 25 24 24 22 26 28 29 30 30 32 36 38 39 40 35
26 25 25 25 26 27 28 27 27 25 27 27 24 24 23 22 21 27 28 29 29 30 32 36 38 40 41
23 24 24 25 25 26 26 25 24 26 27 26 25 25 24 23 22 24 26 29 31 30 29 32 33 35 33
23 24 25 24 24 24 23 23 22 23 28 26 24 24 24 25 25 25 28 26 30 30 32 33 35 35 35
22 22 23 23 23 24 22 22 21 21 22 25 27 26 26 26 24 26 27 27 30 31 30 30 33 33 34
22 22 21 21 21 23 24 21 20 21 21 23 23 24 26 28 32 26 28 29 30 31 32 29 30 34 36
21 21 22 22 23 21 21 21 21 21 22 23 24 24 21 20 29 38 29 29 29 30 31 31 30 33 36

GFSFLT2_sfc_temp_060.txt.gz
Temp
30 31 30 31 34 35 36 36 37 43 44 45 46 46 47 47 47 48 48 48 49 49 50 51 52 52 52
29 29 29 31 31 31 35 38 37 40 43 44 45 45 45 45 46 46 47 47 47 48 48 49 49 50 50
29 29 29 30 31 32 33 33 36 40 42 42 43 43 44 45 45 45 44 45 45 45 46 46 47 47 49
28 26 26 31 31 29 29 32 32 36 38 40 41 42 43 42 42 42 42 42 43 44 45 45 45 46 47
27 25 27 29 28 29 28 30 31 32 32 31 30 33 34 37 38 39 40 41 43 44 44 44 45 45 46
29 28 28 28 29 28 27 26 25 33 28 30 33 31 32 33 38 40 41 41 42 42 43 43 44 44 45
29 28 27 29 28 26 27 27 27 30 29 27 30 29 32 34 38 39 40 40 41 42 42 43 43 44 44
30 30 31 32 32 32 30 28 29 30 30 23 29 28 31 31 36 38 39 40 40 41 42 42 42 42 43
39 39 39 39 38 31 25 24 22 25 29 26 25 25 27 28 31 36 38 39 39 39 40 40 41 42 41
29 30 32 30 35 30 24 22 22 21 25 22 24 24 21 23 24 29 30 34 36 38 39 39 40 37 36
27 27 28 28 28 28 27 24 22 21 28 27 23 23 23 22 24 28 28 29 29 31 35 37 38 38 34
25 24 24 24 25 26 27 27 27 25 26 26 22 21 21 21 21 26 27 28 28 28 29 34 37 38 40
22 23 23 24 24 24 25 26 24 25 26 26 24 24 23 21 21 23 24 27 29 28 28 27 30 32 32
22 23 24 23 22 23 22 23 22 22 26 26 24 24 22 22 23 22 26 24 28 29 28 29 32 34 34
22 21 22 22 22 23 22 22 20 20 21 24 25 25 24 23 22 24 25 26 27 28 28 29 31 33 34
21 21 20 20 20 22 24 21 20 20 20 22 22 22 23 26 30 23 25 26 28 29 30 28 29 33 34
20 20 20 21 22 20 21 21 21 21 21 22 22 22 20 18 27 36 27 28 29 29 29 29 28 31 34

GFSFLT2_sfc_temp_063.txt.gz
Temp
29 31 29 31 34 33 34 33 35 42 43 44 45 46 47 47 47 48 48 48 49 49 50 51 51 52 52
27 27 28 30 30 29 34 37 35 40 42 43 44 45 45 45 46 47 46 46 47 47 48 49 50 51 51
28 27 27 28 28 30 29 31 35 39 41 42 42 43 43 45 45 46 45 45 45 45 46 47 47 48 49
28 27 26 28 27 27 29 31 31 35 37 39 41 41 42 43 42 42 42 42 43 44 44 45 45 46 47
26 25 24 28 27 29 27 29 29 31 31 29 30 30 33 37 38 39 39 41 42 44 44 44 44 45 45
19 28 27 28 29 27 27 25 25 30 26 30 32 30 32 32 37 39 41 42 42 43 43 43 43 44 44
29 28 27 29 28 26 27 26 26 30 29 26 30 28 31 33 38 39 40 40 41 42 43 43 43 43 44
29 29 29 31 32 32 30 27 28 29 29 22 28 27 31 31 37 38 39 40 40 41 42 42 42 43 43
39 39 39 39 37 31 25 24 22 25 29 25 24 25 27 28 31 36 38 39 40 40 40 40 41 41 40
28 30 32 29 34 29 23 21 22 21 24 21 24 24 20 23 22 28 31 35 36 37 38 39 39 37 35
26 26 27 27 28 27 26 23 22 21 28 27 22 23 22 21 23 26 28 29 29 30 35 36 37 37 33
24 23 23 24 24 25 26 25 26 25 27 26 22 20 20 19 19 25 26 27 27 27 28 32 35 37 39
21 22 23 23 23 22 23 24 23 25 26 26 24 23 22 20 20 21 23 25 27 25 26 26 26 28 27
21 22 23 21 21 22 20 21 21 22 25 26 24 23 21 22 22 21 23 21 25 26 27 28 30 31 30
21 21 21 21 20 21 20 20 19 20 21 24 25 24 23 22 21 22 22 23 25 26 27 27 29 30 32
20 19 19 19 20 21 23 20 19 20 20 22 22 22 22 25 28 22 23 24 25 26 27 26 28 32 33
18 18 19 20 22 19 20 20 20 21 22 23 22 22 20 19 27 35 26 26 27 27 29 28 27 30 32

GFSFLT2_sfc_temp_066.txt.gz
Temp
30 30 28 30 33 32 33 31 33 41 43 44 44 46 46 47 47 48 48 48 49 50 50 51 51 52 52
26 27 27 30 30 29 34 37 35 39 42 43 44 44 45 45 46 46 46 46 47 47 48 49 49 50 51
26 27 27 27 27 28 28 31 33 39 41 41 42 43 43 44 45 45 45 45 45 46 46 47 48 48 50
26 23 26 27 26 26 28 29 30 34 37 38 40 41 42 42 42 42 42 42 43 44 45 45 45 46 47
26 26 22 31 27 29 27 28 29 30 30 30 30 30 32 37 38 39 39 41 42 43 44 44 44 45 46
20 25 28 26 28 27 27 26 25 30 26 30 32 30 32 32 37 39 40 41 42 43 43 43 43 44 45
28 27 26 28 28 26 27 26 26 31 29 26 30 28 31 33 37 39 40 41 41 42 42 43 43 43 44
28 29 28 30 30 31 28 26 28 29 28 22 29 27 30 30 36 38 39 40 41 41 42 43 42 42 43
38 38 38 38 36 29 23 22 21 24 28 25 24 24 27 28 31 36 38 40 40 40 40 40 41 41 40
27 29 30 28 34 28 20 20 21 20 24 22 23 24 18 23 23 27 31 35 36 37 38 39 39 37 35
25 25 26 26 27 27 25 19 21 21 27 26 20 23 22 21 23 26 27 28 28 30 34 35 36 36 32
23 22 23 23 24 24 25 24 24 23 25 25 21 19 20 20 19 24 24 26 26 26 27 31 34 36 38
21 21 22 22 22 21 22 22 21 22 24 23 22 22 21 19 19 21 22 25 26 25 25 25 25 27 26
20 21 22 18 20 20 19 20 19 21 24 24 22 22 21 21 21 20 23 21 24 25 25 26 28 30 30
19 20 20 20 19 20 19 19 19 20 20 24 25 25 24 23 21 22 22 22 24 23 24 24 27 28 30
19 18 17 18 18 21 22 19 18 20 20 22 23 23 24 27 28 21 22 23 24 25 26 24 25 30 31
17 17 17 18 21 18 19 20 21 21 22 25 25 24 21 20 30 37 26 27 28 28 28 27 27 29 32

GFSFLT2_sfc_temp_069.txt.gz
Temp
39 41 40 41 43 44 43 43 43 43 44 44 44 46 46 47 47 48 49 49 49 50 50 51 52 52 52
38 39 38 41 41 40 41 42 42 42 42 43 44 44 45 45 46 46 46 47 47 48 49 49 50 50 51
34 37 38 39 39 39 38 39 40 40 41 42 42 43 43 44 45 45 45 45 45 46 46 47 48 49 50
35 35 36 38 37 34 35 39 38 40 40 40 41 42 42 42 42 42 42 42 43 44 44 45 46 47 47
34 35 34 35 34 36 34 36 37 39 38 39 40 40 40 40 40 40 40 41 42 43 44 45 45 45 46
32 32 34 34 35 34 33 31 28 40 37 36 39 37 39 40 40 40 41 42 42 43 43 44 43 44 44
34 33 33 35 33 30 32 31 30 36 35 32 37 35 39 39 39 39 40 41 41 42 43 43 43 43 44
36 36 36 37 36 34 33 32 34 36 36 27 36 34 37 38 38 38 39 40 41 42 42 43 43 42 43
38 37 38 38 37 34 30 28 25 30 35 31 32 33 34 34 38 38 38 39 40 40 40 40 41 41 41
34 35 35 34 34 33 30 24 24 25 35 27 30 29 26 35 36 37 36 37 37 38 38 39 39 38 37
32 32 32 32 33 33 31 27 23 24 32 29 27 27 25 26 31 34 34 35 35 36 36 36 36 36 33
28 28 28 29 29 30 29 29 29 26 29 27 24 24 23 23 24 31 33 34 33 32 33 35 35 36 37
26 26 27 27 26 26 27 27 26 26 26 26 24 25 24 23 23 25 27 31 32 30 31 31 31 33 31
25 26 26 26 25 26 24 25 24 26 31 29 26 25 24 25 25 24 28 25 30 30 31 31 32 33 32
24 23 24 24 24 25 24 24 23 24 25 29 31 30 28 26 24 27 27 28 30 29 29 28 30 33 33
22 22 21 21 22 24 27 24 22 24 25 28 28 27 29 32 31 26 28 28 30 31 29 27 28 33 36
21 21 21 21 23 23 23 24 24 26 27 28 28 27 24 24 33 39 30 32 32 31 33 32 30 33 36

GFSFLT2_sfc_temp_072.txt.gz
Temp
33 38 39 42 46 48 48 48 48 47 46 46 45 46 46 47 47 48 48 49 50 50 51 51 52 53 53
38 40 43 44 43 43 45 46 45 45 45 44 44 45 45 45 46 46 47 48 48 49 49 50 51 51 52
36 41 40 41 41 44 44 43 45 45 45 45 44 44 44 45 45 45 45 45 46 46 46 47 48 49 50
38 38 40 43 42 39 40 42 42 45 44 44 44 44 44 44 44 44 43 43 44 44 44 45 45 46 47
37 39 39 40 39 40 38 39 41 42 42 43 44 44 45 45 44 44 43 43 43 44 45 45 46 46 46
35 36 39 39 39 37 35 34 31 42 41 39 43 42 44 45 44 43 43 42 42 43 44 44 44 44 45
37 38 37 39 35 33 34 32 31 38 39 35 41 39 43 45 44 43 42 42 42 42 43 43 44 44 44
39 39 39 40 39 36 36 35 38 40 41 32 39 38 42 43 43 42 42 42 42 42 42 42 43 43 43
38 38 38 39 39 37 33 32 30 33 39 35 37 37 38 38 41 42 41 41 41 41 41 41 41 42 41
39 39 40 39 37 37 34 28 27 27 39 31 32 32 28 36 38 40 40 41 40 40 40 40 40 38 38
37 38 38 38 38 38 36 30 26 26 35 32 29 29 27 28 33 37 38 38 39 40 40 39 39 38 35
34 34 33 33 34 34 33 32 32 30 32 30 25 26 25 24 26 33 36 37 36 35 37 39 39 39 39
31 31 32 32 30 31 32 32 31 31 31 30 27 26 25 24 25 28 29 32 34 33 34 34 34 35 33
30 31 31 30 30 31 29 29 27 29 33 33 31 29 25 27 27 26 30 27 32 33 33 33 34 35 34
28 28 29 29 29 31 28 28 26 27 28 33 34 33 31 29 26 29 29 30 32 32 31 30 33 35 34
27 27 26 26 26 28 29 28 27 27 28 31 32 30 32 33 34 29 31 31 33 33 33 31 32 36 37
26 25 25 25 27 27 28 28 28 29 30 31 30 29 26 26 35 40 32 33 33 32 33 33 32 34 38

GFSFLT2_sfc_temp_075.txt.gz
Temp
35 37 35 36 39 41 44 46 47 48 49 48 47 47 47 48 48 48 49 49 50 51 52 52 52 52 52
35 36 35 42 42 40 42 46 45 47 47 47 47 47 47 47 47 47 47 48 48 49 49 50 51 51 52
36 39 40 41 40 42 43 43 45 47 48 47 47 47 46 46 46 46 46 46 46 46 47 47 48 49 50
37 37 39 40 40 38 38 40 40 45 45 45 46 46 47 47 47 46 46 46 45 45 45 46 46 47 48
35 37 37 37 36 38 36 37 38 40 38 40 39 40 42 45 45 46 46 46 45 45 45 46 46 46 47
34 34 36 37 37 35 33 31 29 38 35 35 39 38 40 41 45 46 46 45 45 45 44 45 45 45 46
35 35 35 36 32 31 32 31 30 35 35 32 38 36 40 43 45 45 45 45 44 44 44 44 44 45 45
37 37 36 37 36 35 33 33 35 36 37 29 36 35 38 40 44 43 43 43 43 43 43 43 43 43 44
40 40 40 40 39 34 30 29 29 30 34 31 32 32 33 34 36 42 43 43 43 43 43 43 43 43 41
35 37 39 38 40 35 31 28 27 26 32 28 29 29 26 32 32 34 34 40 41 42 41 42 42 39 37
34 34 35 35 34 35 34 32 27 26 32 31 25 27 26 26 29 31 32 33 34 36 39 40 40 40 35
31 31 30 32 32 33 32 32 31 29 30 30 26 25 23 23 23 27 29 31 32 31 32 36 39 39 40
29 30 31 31 31 30 32 32 32 32 32 30 28 27 25 23 23 25 26 28 30 29 31 32 32 33 31
29 30 31 30 29 30 28 29 27 28 30 31 31 29 27 27 26 25 28 25 29 31 31 32 33 33 33
28 27 27 28 28 29 28 27 26 27 28 31 33 33 31 29 26 28 28 29 31 30 30 30 33 34 34
26 26 25 25 25 27 28 27 26 27 28 30 30 30 31 32 35 29 30 29 31 32 33 30 31 34 36
26 25 25 25 26 25 27 27 27 28 28 30 30 28 25 24 32 40 31 31 31 31 32 31 30 33 36

GFSFLT2_sfc_temp_078.txt.gz
Temp
35 37 36 37 40 41 41 41 43 48 49 49 49 48 48 48 49 49 49 50 50 51 52 53 53 53 53
35 35 35 39 39 39 41 43 40 46 48 48 49 49 48 48 48 48 48 48 49 49 49 50 51 51 52
34 37 37 36 34 36 36 37 42 46 47 47 47 47 47 48 48 48 48 48 48 48 48 48 49 49 50
30 32 35 35 33 32 33 35 35 41 42 44 45 46 46 46 46 46 46 47 47 47 47 47 47 48 48
30 32 29 32 31 33 30 29 32 33 32 33 33 36 38 42 43 44 45 46 47 47 47 47 47 47 47
28 29 31 30 31 29 26 24 24 32 30 33 33 34 36 36 43 45 46 46 46 46 47 46 46 46 46
31 30 29 30 27 25 27 23 26 32 29 30 33 31 35 39 43 44 45 45 45 45 45 45 45 45 45
32 31 31 32 30 28 26 27 29 30 30 26 30 30 33 33 41 42 42 43 44 44 44 44 44 44 44
41 41 41 41 39 27 22 20 24 27 30 26 26 27 31 31 32 40 41 41 41 41 43 43 43 44 42
30 32 35 33 41 32 22 17 27 25 26 22 23 24 24 25 27 31 29 36 39 39 40 41 42 38 37
27 27 28 28 29 30 30 29 27 26 31 30 23 27 25 25 26 25 29 29 30 32 36 38 39 39 35
26 24 25 27 31 31 32 31 31 28 31 30 26 25 24 23 24 26 28 29 28 28 30 33 37 39 40
22 24 30 30 30 29 30 31 30 31 31 30 28 28 27 25 24 26 27 29 30 28 25 29 29 31 29
21 29 29 28 28 28 27 28 27 28 31 32 30 29 27 28 27 26 28 26 29 30 30 31 32 32 32
27 26 26 26 26 27 26 26 24 26 27 31 32 32 31 29 27 29 29 29 31 31 30 30 32 33 33
25 25 24 24 24 25 25 25 25 26 27 29 29 29 29 30 34 29 29 28 31 31 32 30 30 34 35
25 25 25 24 25 24 24 25 25 27 27 29 28 27 23 22 30 38 30 31 31 31 32 31 30 32 35

GFSFLT2_sfc_temp_081.txt.gz
Temp
36 37 36 36 40 42 42 41 42 47 48 49 49 49 49 50 50 50 50 50 51 51 52 52 52 52 53
35 35 36 38 39 39 42 44 41 45 48 48 49 49 49 49 49 49 49 49 49 49 50 50 50 50 51
34 35 34 35 35 38 38 38 41 45 46 46 46 46 47 47 48 48 47 47 48 48 48 49 49 50 50
33 32 34 37 35 33 32 34 34 39 41 42 44 44 44 45 45 45 45 46 46 47 48 48 48 49 49
32 31 28 31 30 30 29 28 29 30 30 31 31 33 34 39 41 42 44 46 47 47 48 48 48 47 48
27 29 28 28 28 28 25 23 23 30 29 31 32 32 32 32 41 44 44 45 46 46 46 46 46 46 46
29 28 28 29 26 23 26 21 22 28 28 27 29 29 30 36 40 42 43 43 44 44 45 45 46 46 46
31 29 29 29 28 26 24 25 27 28 28 20 26 28 29 31 38 41 42 42 42 42 42 43 44 44 44
40 40 41 41 40 26 22 19 20 25 27 25 24 26 30 28 29 38 40 39 39 40 41 41 42 42 41
28 30 32 31 37 29 20 13 23 19 26 23 21 26 22 24 26 30 27 35 37 38 38 39 39 37 35
25 26 27 27 28 28 28 23 25 26 32 29 25 27 25 25 25 26 29 28 29 31 35 36 37 38 34
25 23 23 28 30 31 31 31 30 28 31 29 26 26 25 24 24 26 28 29 28 28 28 32 36 38 39
21 21 28 29 29 29 30 30 30 30 29 30 28 28 26 24 24 25 27 28 29 27 26 28 28 30 29
20 29 29 27 27 27 26 26 26 23 25 26 30 28 26 27 27 26 29 26 31 30 30 31 33 33 33
26 25 26 26 25 26 25 25 21 21 23 25 28 29 29 27 26 28 28 29 31 30 30 30 32 34 34
26 25 24 24 24 25 25 17 21 22 23 25 25 25 27 28 33 27 28 28 29 29 29 29 30 34 34
25 24 24 24 25 23 17 19 21 22 23 24 22 23 22 20 28 37 25 29 30 29 31 31 30 32 34

GFSFLT2_sfc_temp_084.txt.gz
Temp
37 37 36 37 39 41 42 42 42 46 48 49 50 50 50 50 50 50 51 51 52 52 52 52 53 53 53
35 35 36 37 38 39 42 44 41 44 47 48 49 49 49 48 48 49 49 49 49 49 50 51 51 51 51
33 36 36 37 36 35 38 38 40 44 45 45 46 46 46 47 47 47 47 47 47 47 48 49 50 50 51
34 33 34 35 32 30 32 33 31 38 39 41 43 43 44 44 44 44 44 45 46 47 47 48 49 49 50
31 29 25 28 27 28 28 27 27 28 28 30 30 30 31 38 39 41 43 45 46 46 47 48 48 48 48
20 26 26 26 26 26 22 20 20 28 27 29 29 29 30 30 39 42 43 44 44 45 46 46 46 47 47
27 26 26 27 23 21 24 19 20 27 26 24 27 27 29 34 39 40 42 43 44 44 44 44 45 45 45
29 28 28 28 27 25 23 24 26 27 27 18 25 27 28 31 37 39 41 41 41 41 41 42 43 43 44
38 39 40 41 39 26 21 18 20 25 27 25 24 25 26 26 28 38 39 39 39 39 40 41 41 41 40
28 29 30 31 36 28 19 12 14 17 26 27 24 24 19 24 26 29 28 35 38 39 39 39 39 37 35
25 25 26 27 27 28 27 21 23 24 30 28 23 27 25 20 23 25 26 28 28 30 35 37 37 37 34
24 22 23 24 30 31 31 31 30 28 31 30 25 22 23 23 23 24 26 28 26 27 28 32 36 37 37
21 20 25 29 29 28 30 30 30 30 27 17 24 23 25 24 24 26 27 27 29 24 26 28 28 32 30
18 27 29 28 26 27 25 26 25 21 23 23 21 20 25 26 26 26 28 26 27 29 29 29 30 31 33
26 26 26 26 26 26 25 25 21 22 21 23 26 26 26 25 25 27 27 28 28 28 28 27 30 32 34
26 25 25 24 24 25 24 18 19 21 20 21 22 22 26 27 31 26 27 26 27 27 27 27 29 32 35
24 24 24 24 25 22 13 15 18 19 20 19 15 21 20 19 24 36 23 24 28 28 29 29 29 31 34

GFSFLT2_sfc_temp_087.txt.gz
Temp
37 37 37 38 40 41 41 41 42 46 48 49 49 50 50 50 50 51 51 51 52 53 53 53 53 53 53
36 36 37 38 39 39 41 44 40 44 47 48 49 49 49 48 48 49 49 50 49 50 50 51 52 52 52
33 36 37 37 37 38 38 35 39 43 44 45 45 46 46 47 47 46 47 47 47 47 48 48 49 50 51
34 33 35 34 31 30 29 29 30 36 37 40 41 42 42 43 44 44 44 44 45 46 47 48 48 49 50
26 27 24 27 26 26 27 26 26 27 28 29 29 29 30 37 38 40 42 44 45 46 47 47 48 49 48
17 25 25 25 25 25 22 20 20 27 26 27 29 28 29 30 39 42 42 43 44 45 45 46 46 46 46
27 26 25 26 22 21 23 18 19 27 26 24 26 26 29 33 38 40 41 43 43 43 43 43 44 45 45
29 28 28 28 26 24 22 23 26 27 26 18 25 26 28 30 36 39 41 41 41 41 41 42 43 43 43
37 39 40 40 36 25 21 18 20 25 26 24 24 24 25 25 28 37 39 40 40 40 41 41 41 42 40
28 29 30 32 35 28 19 11 13 17 25 23 21 22 19 24 26 28 30 35 38 39 39 39 40 37 35
25 24 26 26 27 27 26 17 24 25 28 29 24 26 25 19 23 24 26 28 28 30 34 37 37 38 34
23 21 22 22 25 30 31 31 30 28 30 29 26 24 17 23 24 23 25 28 27 27 28 32 36 38 38
20 19 22 29 29 28 29 30 29 30 31 23 23 22 23 23 23 25 27 26 31 24 21 25 26 29 27
17 22 28 28 26 27 25 26 25 21 21 18 17 14 20 24 25 24 27 25 24 30 27 28 29 29 29
25 26 26 26 26 26 25 25 23 17 23 22 23 22 22 22 22 25 25 25 28 27 25 26 28 29 30
26 25 24 24 24 25 25 21 20 19 17 16 14 16 19 24 29 23 23 23 26 26 24 25 27 31 33
24 24 24 24 24 23 19 14 18 18 18 17 8 16 19 18 23 35 23 17 24 26 27 27 28 30 32

GFSFLT2_sfc_temp_090.txt.gz
Temp
37 38 38 39 40 42 42 42 42 45 47 49 49 50 50 50 50 50 50 51 52 53 53 53 53 54 53
36 36 37 38 39 39 42 44 42 44 47 48 48 48 48 48 48 48 49 49 49 50 50 51 51 52 53
32 34 36 38 37 38 38 36 39 43 43 44 45 45 45 46 46 47 47 46 47 47 48 48 49 50 51
33 34 34 31 29 29 29 29 30 35 37 39 41 42 42 43 44 44 44 44 45 46 47 48 48 49 50
26 27 24 27 26 26 26 26 26 26 27 29 29 30 30 36 38 40 42 44 45 46 46 47 48 48 48
22 25 25 25 25 25 21 19 19 27 26 27 28 28 29 30 38 42 42 43 43 45 45 46 46 46 46
26 26 25 26 22 20 23 17 18 26 26 24 26 26 29 32 38 40 41 42 42 42 43 43 44 44 45
28 27 27 27 26 23 21 22 26 27 26 18 24 26 28 28 36 39 41 41 42 42 42 42 43 43 44
37 38 39 39 33 24 21 18 19 24 26 24 23 23 25 25 29 38 39 40 40 40 41 41 41 42 41
27 29 29 32 34 27 19 10 13 16 24 21 21 22 18 23 26 28 28 35 38 38 38 39 39 37 36
24 24 25 26 27 27 26 19 24 25 29 29 21 26 25 20 23 25 26 27 29 31 34 36 37 38 35
23 20 22 22 23 25 31 30 30 28 30 28 25 24 23 23 23 22 23 27 27 27 27 32 35 37 38
19 18 19 26 28 28 30 30 29 29 30 30 28 26 23 23 23 24 25 24 27 24 21 23 26 28 26
17 19 26 27 26 27 24 25 23 16 21 15 13 11 14 20 22 22 25 23 22 25 26 27 28 28 28
21 26 27 27 26 26 25 24 23 15 15 19 22 21 19 19 20 22 22 23 25 24 21 25 27 28 29
23 26 25 24 24 24 25 24 21 16 14 13 10 13 16 22 27 21 20 20 23 23 21 22 25 29 30
17 24 24 24 24 23 24 22 20 15 17 12 5 11 15 16 22 34 22 22 19 24 25 24 24 27 30

GFSFLT2_sfc_temp_093.txt.gz
Temp
40 42 43 44 45 46 46 46 47 46 47 49 49 50 50 50 50 50 50 50 51 52 53 53 54 54 54
40 39 40 42 42 44 44 47 45 45 47 48 48 48 48 48 48 48 49 49 49 50 51 51 51 52 52
37 39 42 43 43 42 41 41 44 43 44 44 45 46 45 46 46 47 47 47 47 47 48 48 49 50 51
39 39 39 38 39 41 41 42 42 42 41 41 42 43 43 44 44 44 44 44 45 46 47 47 48 49 50
37 38 37 38 39 38 38 39 40 39 40 42 42 42 42 40 40 41 42 44 45 46 46 47 47 48 48
33 37 36 37 37 37 36 35 36 38 37 39 39 41 42 42 40 42 43 43 44 45 45 45 45 46 46
37 37 36 37 34 32 33 33 34 38 36 37 39 39 42 41 38 40 41 42 43 43 43 43 44 44 45
38 37 37 37 36 34 33 34 35 36 36 32 37 37 39 39 36 40 41 43 42 42 42 42 42 43 44
38 39 38 39 37 35 33 32 33 34 35 33 34 33 35 37 39 38 39 39 40 41 41 41 41 42 42
35 35 35 38 35 35 32 29 30 30 34 30 31 32 30 36 37 38 39 38 38 39 39 39 39 40 40
33 33 33 34 34 34 33 30 29 29 35 32 30 31 30 30 34 35 36 37 38 38 37 37 37 38 37
30 30 31 31 32 33 34 33 33 31 33 31 29 29 28 27 28 34 35 35 35 35 37 37 37 38 38
29 29 30 31 31 31 31 32 32 32 32 32 30 30 28 26 26 29 29 33 34 33 34 34 35 36 34
29 31 31 31 30 30 28 29 28 29 30 29 27 25 25 27 26 25 29 26 33 33 32 33 34 36 35
29 29 30 29 29 30 28 28 26 27 27 29 29 28 27 24 24 27 27 28 31 30 30 30 33 35 36
29 29 28 28 27 28 28 27 26 26 25 26 25 25 27 30 29 27 28 28 30 31 30 28 29 34 37
28 28 28 27 27 26 26 26 25 25 25 25 23 21 21 21 30 34 27 29 30 30 31 30 29 32 35

GFSFLT2_sfc_temp_096.txt.gz
Temp
45 45 45 49 50 52 51 52 51 47 48 49 49 50 50 50 50 50 50 51 51 52 53 53 54 54 54
43 44 46 46 48 48 49 50 50 46 47 48 48 48 48 48 48 48 49 49 49 49 49 51 51 51 52
43 45 44 47 47 48 47 46 47 44 45 44 45 46 47 46 46 47 47 47 47 47 47 48 48 49 51
46 44 45 44 46 45 45 48 47 48 45 42 43 45 45 45 45 45 45 45 45 46 47 47 48 48 49
43 43 42 43 44 45 44 46 47 45 45 47 47 47 48 45 43 42 43 44 45 46 46 46 47 47 48
40 43 43 44 43 43 43 41 40 44 42 44 46 45 47 47 43 42 43 44 44 44 45 45 45 45 46
43 44 42 43 41 38 39 38 38 44 40 41 45 44 47 46 42 40 41 42 43 43 43 44 44 44 45
44 43 42 42 41 38 37 39 40 42 41 35 44 42 46 45 38 40 42 43 43 42 42 43 43 43 43
39 39 39 38 41 40 36 35 37 39 41 37 40 38 41 41 44 39 39 40 41 41 42 42 41 41 43
39 38 39 39 38 39 36 32 34 34 38 33 34 35 34 41 41 42 43 42 41 40 42 41 40 41 42
39 39 38 38 38 38 37 33 31 32 37 33 31 31 32 33 38 40 40 41 42 41 41 41 39 39 39
36 35 35 35 35 36 36 35 35 32 34 32 30 30 29 28 31 37 39 40 39 38 40 40 40 40 40
34 33 34 35 33 32 32 32 32 32 33 32 31 30 29 27 28 30 31 36 37 35 36 37 37 38 36
34 35 34 32 32 32 30 30 29 30 33 32 31 30 28 29 29 28 31 29 35 34 34 35 36 38 38
33 33 32 32 30 31 30 29 27 27 29 32 33 32 31 29 26 30 31 32 34 33 32 31 34 37 38
33 32 32 31 30 30 29 28 27 28 28 30 29 28 30 33 32 29 31 32 34 33 32 29 31 36 39
31 31 31 31 30 30 29 27 27 28 29 29 27 25 23 23 33 36 29 31 32 32 33 32 31 34 37

GFSFLT2_sfc_temp_099.txt.gz
Temp
45 46 46 48 49 51 50 51 48 49 50 50 50 50 50 51 50 50 50 51 51 51 52 53 54 54 54
43 43 46 48 48 48 48 51 48 47 48 49 49 49 48 48 48 48 48 49 49 49 49 50 51 52 52
43 45 44 45 46 47 46 44 48 45 46 46 46 47 47 47 47 47 47 47 47 47 47 48 48 49 51
43 42 43 43 44 41 40 43 42 47 46 44 45 46 46 46 46 46 45 45 46 46 47 47 48 48 49
40 40 39 39 38 40 38 39 40 39 39 41 40 41 42 46 45 45 43 44 45 46 46 47 47 47 48
39 39 40 40 39 38 36 33 32 38 36 37 40 37 40 40 45 43 43 44 44 45 45 46 45 45 46
40 39 38 39 36 34 34 33 32 37 35 33 38 36 40 44 44 42 42 43 43 44 44 44 44 44 45
40 39 38 38 36 34 33 34 35 36 36 29 37 35 38 39 41 40 42 43 43 44 43 43 43 43 44
41 41 41 41 41 35 32 31 30 32 34 31 33 32 34 35 37 40 40 41 42 43 43 43 43 43 40
34 35 38 37 39 35 32 28 30 29 32 28 30 29 27 34 34 35 35 43 44 43 42 43 43 36 35
34 34 34 34 34 34 33 32 31 31 32 29 30 30 30 30 29 32 33 34 34 36 42 42 43 39 32
32 31 31 31 32 32 33 32 33 31 33 31 28 29 28 27 26 29 30 31 31 32 32 38 41 42 42
30 29 31 31 32 29 29 29 26 28 30 31 29 29 28 26 26 28 28 27 31 30 28 34 34 31 31
30 31 31 31 28 32 29 30 28 29 32 31 25 28 26 27 27 26 29 25 26 28 30 33 33 32 32
30 29 29 29 28 30 29 29 26 26 28 30 31 30 29 27 24 26 25 27 29 31 31 30 31 31 32
29 29 28 27 26 29 29 27 26 27 27 28 28 27 27 28 32 25 26 26 25 27 29 28 28 30 33
28 28 28 27 28 25 25 26 26 26 25 28 26 24 20 18 26 37 26 25 26 27 28 28 27 30 32

GFSFLT2_sfc_temp_102.txt.gz
Temp
41 42 43 45 45 48 48 47 47 50 51 51 51 51 51 51 51 51 50 50 51 51 51 52 53 53 54
41 42 44 46 46 43 46 48 44 48 49 50 50 50 49 49 48 48 48 49 49 49 49 49 50 51 52
41 43 42 43 42 42 42 41 45 47 47 47 47 47 48 48 48 47 47 47 47 47 47 48 48 49 50
37 37 37 39 39 36 36 38 38 45 46 46 46 46 47 47 47 46 45 45 46 46 47 47 47 48 49
33 35 33 34 34 35 34 34 35 35 33 34 34 35 36 45 44 45 44 44 45 46 46 46 47 47 47
31 34 34 34 34 33 32 27 28 32 30 31 33 32 35 36 46 44 44 44 44 45 45 45 45 45 45
36 35 34 34 33 30 30 26 24 30 30 28 31 32 34 41 45 43 43 43 44 44 45 44 44 44 45
35 34 34 34 33 31 29 29 30 31 30 23 29 30 32 32 43 42 42 43 43 44 43 43 44 44 44
42 43 43 42 37 30 26 24 24 28 29 27 27 28 29 30 33 42 41 42 42 43 43 43 43 43 39
31 35 35 37 39 31 26 18 20 22 28 22 24 23 20 28 30 31 31 41 43 44 44 43 44 35 32
30 29 29 29 29 29 30 20 19 22 29 21 21 29 23 23 25 28 29 31 31 33 39 41 42 40 30
28 26 26 25 25 26 28 27 26 30 31 26 17 26 25 22 22 25 24 28 26 29 29 35 38 39 40
24 24 24 24 24 29 23 24 19 23 28 27 20 26 27 25 18 23 28 26 29 23 24 26 29 31 28
23 24 24 23 20 20 27 28 27 28 32 31 29 22 26 27 26 26 28 24 20 24 25 31 34 35 32
23 23 24 23 21 27 27 27 25 26 27 29 30 29 28 27 24 26 26 24 24 25 29 31 31 29 29
22 23 21 22 19 16 19 25 24 23 24 25 27 27 26 27 32 25 25 24 23 23 21 20 26 28 29
23 21 19 19 27 16 16 18 18 19 18 17 19 23 16 18 23 34 24 16 24 27 22 24 24 27 29

GFSFLT2_sfc_temp_105.txt.gz
Temp
42 43 43 42 45 47 47 47 48 52 52 52 52 52 52 52 52 52 51 51 51 52 51 52 53 53 53
42 42 43 44 46 45 47 47 45 49 50 51 51 51 50 50 50 49 49 49 49 49 49 49 50 51 51
40 43 43 44 43 43 42 40 44 48 49 49 49 49 48 49 48 48 47 47 47 47 47 48 48 49 50
40 39 40 41 40 36 35 37 38 44 46 45 47 47 48 48 48 47 46 46 46 47 47 47 47 48 48
34 34 30 33 33 35 34 33 33 34 34 35 34 34 35 44 43 46 45 45 45 46 47 47 47 47 47
35 32 32 33 33 33 32 29 29 31 32 31 32 31 33 33 44 45 45 44 45 45 46 46 46 45 45
35 34 33 34 33 31 31 28 28 31 30 28 30 30 31 39 46 45 44 44 44 45 45 45 44 44 45
35 34 34 34 35 33 31 30 30 30 30 22 27 29 30 31 44 43 43 42 44 43 45 44 44 44 44
42 43 43 41 37 33 29 27 24 27 28 27 25 27 28 29 31 43 42 42 43 44 44 44 44 44 39
31 36 37 38 40 32 28 20 20 21 27 22 22 22 19 27 29 30 30 39 43 43 43 44 43 34 31
30 29 29 30 30 30 29 21 15 16 28 20 13 19 18 20 24 26 28 29 29 31 37 39 41 39 31
29 27 27 27 27 27 28 26 25 22 26 20 13 14 12 14 19 24 22 25 25 28 28 34 37 38 39
27 26 26 26 24 21 23 24 18 22 24 24 25 14 17 14 14 19 27 25 26 20 22 24 26 28 29
27 26 24 21 19 17 16 18 20 25 31 31 29 28 25 27 26 25 28 22 18 19 21 23 27 31 31
26 25 26 22 21 16 17 23 25 25 27 29 31 28 27 25 23 24 26 26 26 18 19 23 23 27 28
26 26 24 21 18 14 14 16 20 21 23 24 23 27 22 24 30 23 26 25 25 19 19 24 25 25 28
25 24 22 21 27 15 15 18 18 16 15 14 14 16 16 17 23 33 22 15 24 24 23 22 22 25 27

GFSFLT2_sfc_temp_108.txt.gz
Temp
43 42 44 45 46 46 46 46 46 52 53 53 53 53 53 53 54 53 53 53 52 53 52 52 53 53 53
42 42 43 44 44 43 46 47 45 50 51 51 51 52 52 51 51 51 50 50 50 50 49 50 51 51 52
41 43 43 44 43 43 43 42 45 49 50 50 50 50 50 49 49 49 48 48 48 48 48 48 49 49 50
41 39 40 41 41 39 38 38 36 42 45 45 47 48 48 48 49 48 46 46 47 47 47 47 47 48 48
37 37 36 37 38 37 36 32 32 34 33 35 34 34 36 42 44 46 46 46 46 47 47 47 47 47 47
36 37 36 36 35 32 31 27 29 31 32 32 32 32 33 33 43 45 45 45 45 46 46 46 46 46 46
38 38 36 36 32 30 30 27 28 31 32 30 30 30 31 37 45 45 45 44 45 45 45 46 46 45 45
40 39 38 34 34 32 31 30 30 31 31 25 27 29 29 30 42 45 44 43 44 44 44 45 44 44 44
42 42 42 42 36 33 29 28 27 29 29 28 26 27 27 28 31 43 43 42 43 45 44 44 44 44 38
33 34 36 38 40 33 29 26 24 23 28 24 23 23 19 26 28 29 30 39 42 43 44 44 43 33 31
28 28 30 29 30 30 30 25 19 19 29 21 12 17 14 19 23 26 27 28 29 30 36 38 40 39 30
29 27 28 26 28 29 29 28 26 25 26 19 12 13 7 12 19 23 21 23 25 27 27 33 36 38 39
26 25 27 28 26 25 26 25 21 23 24 18 18 8 11 10 13 18 21 22 23 20 21 22 24 26 23
26 26 26 25 24 20 18 18 16 18 25 21 20 25 24 26 25 24 21 21 17 18 19 21 24 27 27
27 27 27 26 24 18 18 17 17 18 22 27 31 29 23 20 18 20 18 25 28 25 18 19 22 25 27
27 27 27 25 23 18 18 18 17 21 24 23 23 26 23 24 29 20 19 26 26 19 22 24 23 24 27
27 26 25 25 27 20 21 20 19 17 17 15 19 21 19 18 24 33 23 18 20 21 22 22 22 24 26

GFSFLT2_sfc_temp_111.txt.gz
Temp
44 44 44 45 46 47 47 47 47 53 54 53 53 54 54 54 55 55 54 54 54 54 54 53 54 54 53
43 43 44 45 45 45 46 47 45 51 52 52 52 52 53 53 52 52 52 51 52 51 51 51 51 52 52
42 43 43 44 43 44 42 42 45 49 51 51 52 51 51 50 50 50 49 49 49 48 48 49 49 50 50
41 40 41 42 41 38 37 39 39 43 45 45 48 49 49 49 49 48 47 47 47 48 47 47 48 48 49
38 38 37 37 38 38 37 36 36 35 33 33 34 34 36 42 44 47 47 46 46 47 47 47 47 47 47
37 38 37 38 37 36 34 33 33 30 31 31 32 32 35 33 42 45 46 46 46 46 47 47 47 46 46
39 39 38 38 36 34 33 31 27 29 30 29 30 32 32 36 44 46 46 45 45 45 46 46 46 46 45
40 41 40 38 38 36 34 31 31 30 30 25 28 30 31 31 41 45 45 44 44 44 45 45 46 45 45
43 42 42 41 38 35 29 29 25 28 29 29 27 29 29 29 31 42 44 43 43 44 45 45 44 45 38
34 35 36 39 40 33 30 24 26 25 29 27 26 25 22 26 28 28 30 40 42 44 44 44 44 32 31
32 31 31 31 29 30 30 26 21 24 30 26 17 20 18 20 24 26 27 28 28 30 36 38 40 38 30
30 26 26 25 26 29 30 28 28 29 31 24 18 17 10 13 19 23 21 23 25 27 27 32 35 37 39
24 23 23 23 25 25 26 27 26 28 26 20 19 9 12 10 13 18 18 21 22 20 21 22 24 26 23
24 25 26 25 22 24 23 23 23 23 27 21 21 19 14 17 16 15 19 16 16 19 19 21 24 26 26
25 25 27 25 24 23 23 22 21 21 21 24 27 27 27 20 15 19 16 17 21 22 22 19 22 24 26
25 27 26 25 25 23 22 22 21 22 20 22 25 26 24 25 29 15 15 16 21 24 20 22 22 24 27
27 26 27 26 28 24 23 22 22 22 20 18 16 21 15 15 24 33 24 20 24 24 24 24 25 26 27

GFSFLT2_sfc_temp_114.txt.gz
Temp
46 45 45 46 47 48 48 47 50 54 55 54 54 55 55 55 56 56 56 56 56 56 56 56 55 55 54
45 43 45 45 46 45 46 48 47 51 53 53 53 53 54 54 54 54 53 53 54 53 53 53 53 53 53
45 43 43 44 43 44 43 43 46 49 52 52 53 52 52 52 52 51 51 51 50 50 50 50 51 52 52
43 41 42 42 42 39 38 40 40 44 46 46 48 51 51 50 50 49 48 48 49 49 48 48 49 50 50
39 39 38 38 39 38 37 36 37 38 38 37 34 34 36 43 45 47 47 47 47 48 48 48 48 48 48
37 38 39 39 37 37 35 34 33 36 36 35 32 32 33 33 43 46 47 47 47 47 48 48 47 47 47
39 40 39 40 38 35 35 34 34 32 34 29 30 31 32 36 43 46 46 46 46 46 47 47 47 46 46
38 39 39 39 38 37 35 32 33 33 34 30 27 31 31 32 40 46 46 46 45 45 46 46 46 46 45
42 43 42 41 38 35 32 33 30 31 32 32 28 28 31 32 33 44 45 44 44 44 45 45 45 45 41
34 35 36 38 39 35 34 33 30 29 29 28 24 27 26 29 30 31 32 42 43 45 46 45 45 34 32
32 32 32 32 32 32 32 31 22 20 31 27 23 25 23 26 27 28 29 30 29 31 39 40 41 37 31
31 30 30 30 29 29 28 27 27 27 32 27 22 23 22 21 24 25 24 25 26 28 28 34 37 39 40
29 28 27 24 21 23 24 25 23 28 27 23 24 19 18 18 20 22 22 23 24 21 22 24 26 27 25
25 24 22 19 20 18 18 19 21 22 27 23 24 23 18 19 19 19 21 18 19 20 21 22 25 27 26
22 23 23 22 21 18 19 17 16 18 22 27 27 25 24 21 18 21 20 18 22 21 21 20 23 26 27
24 25 24 23 21 18 18 18 18 21 22 22 26 26 24 26 29 19 19 19 21 23 23 22 21 24 27
27 25 25 24 27 24 21 21 21 22 21 20 19 20 18 18 24 33 23 20 23 23 23 23 22 25 28

GFSFLT2_sfc_temp_117.txt.gz
Temp
51 51 49 51 51 53 52 52 55 55 55 55 55 55 56 56 56 56 56 56 56 57 57 58 57 57 55
52 50 47 51 52 51 48 50 51 53 54 54 54 54 55 55 55 55 55 55 55 56 55 55 56 55 54
50 47 47 47 46 46 46 46 47 50 52 53 53 53 54 54 53 53 52 53 53 52 52 52 53 53 54
47 44 44 45 45 42 41 42 43 45 47 48 52 52 52 52 51 50 50 50 50 50 50 50 51 52 52
43 42 41 40 40 42 41 39 39 40 39 39 44 44 48 50 49 48 48 48 49 49 49 49 49 50 50
41 40 41 40 39 38 36 35 35 39 37 37 38 41 42 46 45 48 48 48 47 48 48 48 48 48 48
41 41 40 41 39 36 36 36 37 35 36 35 37 37 40 44 44 46 47 47 47 47 48 48 48 47 47
43 42 40 40 39 38 37 33 33 33 36 34 34 36 39 44 41 45 47 47 47 47 47 47 47 47 46
42 42 43 42 39 36 34 34 32 33 35 35 32 33 36 40 42 42 47 46 46 46 46 46 46 46 46
39 38 37 38 38 37 36 33 33 32 34 33 31 34 34 36 37 39 45 45 44 45 45 46 45 46 44
38 35 35 35 34 34 33 33 33 32 34 34 32 32 32 32 34 36 37 38 40 40 45 46 45 43 42
36 34 33 33 32 31 31 32 32 32 36 32 31 32 31 30 31 31 33 35 36 37 38 39 41 42 42
34 33 33 32 30 30 31 31 30 31 31 30 31 29 31 31 30 30 30 32 33 33 34 35 36 38 37
34 34 32 30 30 30 30 30 30 31 30 30 30 30 29 30 30 29 31 29 30 30 32 33 34 35 36
32 32 31 30 30 29 29 29 29 29 30 31 31 30 31 29 28 30 29 28 29 29 29 30 32 34 35
32 32 31 30 29 28 28 28 28 29 29 30 30 29 29 31 32 29 28 28 29 29 29 28 29 33 34
32 31 31 30 30 28 28 28 27 28 29 29 28 27 25 26 31 34 29 28 29 28 30 29 29 33 35